Weather History for Mountain Home, ID

Change the Weather History Date:

Wednesday, February 13, 2013

  Actual Average Record
Temperature  
Mean Temperature 39 °F 34 °F  
Max Temperature 52 °F 44 °F 63 °F (1934)
Min Temperature 25 °F 24 °F -11 °F (1949)
Degree Days  
Heating Degree Days 26 31  
Month to date heating degree days 393 413  
Cooling Degree Days 0 0  
Month to date cooling degree days 0 0  
Moisture  
Dew Point 27 °F    
Average Humidity 68    
Maximum Humidity 88    
Minimum Humidity 41    
Precipitation  
Precipitation 0.00 in 0.03 in 0.58 in (1975)
Month to date precipitation T 0.37  
Sea Level Pressure  
Sea Level Pressure 30.31 in    
Wind  
Wind Speed 6 mph (NW)    
Max Wind Speed 21 mph    
Max Gust Speed 21 mph    
Visibility 10 miles    
Events      
T = Trace of Precipitation, MM = Missing Value Source: NWS Daily Summary

Daily Weather History Graph

Daily Weather History Graph

Search for Another Location

Airport:

Trip Planner

Search our weather history database for the weather conditions in past years. The results will help you decide how hot, cold, wet, or windy it might be!

Date:

Astronomy

Feb. 13, 2013 Rise Set
Actual Time 7:43 AM MST 6:12 PM MST
Civil Twilight 7:14 AM MST 6:41 PM MST
Nautical Twilight 6:40 AM MST 7:15 PM MST
Astronomical Twilight 6:07 AM MST 7:48 PM MST
Moon 9:07 AM MST (2/13) 10:28 PM MST (2/13)
Length of Visible Light 11h 27m
Length of Day
10h 29m
Waxing Crescent, 14% of the Moon is Illuminated
Feb 13
Waxing Crescent
Feb 17
First Quarter
Feb 25
Full
Mar 4
Last Quarter
Mar 11
New

Hourly Weather History & Observations

Time (MST) Temp. Windchill Dew Point Humidity Pressure Visibility Wind Dir Wind Speed Gust Speed Precip Events Conditions
12:58 AM 30.7 °F 27.3 °F 25.5 °F 81% 30.38 in 10.0 mi NW 3.5 mph - N/A   Overcast
1:58 AM 31.3 °F 27.9 °F 25.5 °F 79% 30.37 in 10.0 mi West 3.5 mph - N/A   Overcast
2:55 AM 32.0 °F 28.7 °F 26.6 °F 80% 30.35 in 7.0 mi West 3.5 mph - N/A   Overcast
3:58 AM 32.0 °F 28.7 °F 26.6 °F 80% 30.35 in 10.0 mi WNW 3.5 mph - N/A   Mostly Cloudy
4:58 AM 29.7 °F - 25.0 °F 83% 30.34 in 10.0 mi NNW 1.2 mph - N/A   Scattered Clouds
5:58 AM 27.9 °F - 23.5 °F 84% 30.37 in 10.0 mi Calm Calm - N/A   Clear
6:58 AM 26.1 °F - 23.0 °F 88% 30.37 in 10.0 mi Calm Calm - N/A   Partly Cloudy
7:13 AM 26.6 °F - 23.0 °F 86% 30.30 in 10.0 mi Variable 1.2 mph - N/A   Mostly Cloudy
7:48 AM 28.4 °F - 24.8 °F 86% 30.29 in 10.0 mi Calm Calm - N/A   Overcast
7:53 AM 28.4 °F - 24.8 °F 86% 30.30 in 10.0 mi North 2.3 mph - N/A   Overcast
7:58 AM 28.8 °F - 25.3 °F 87% 30.37 in 10.0 mi Calm Calm - N/A   Overcast
8:03 AM 28.4 °F - 24.8 °F 86% 30.30 in 10.0 mi Calm Calm - N/A   Overcast
8:13 AM 30.2 °F - 26.6 °F 86% 30.31 in 10.0 mi NE 1.2 mph - N/A   Overcast
8:59 AM 32.0 °F - 28.4 °F 87% 30.39 in 10.0 mi Calm Calm - N/A   Overcast
9:55 AM 37.4 °F - 30.2 °F 75% 30.37 in 10.0 mi Calm Calm - N/A   Overcast
10:55 AM 44.6 °F 42.2 °F 28.4 °F 53% 30.36 in 10.0 mi West 4.6 mph - N/A   Mostly Cloudy
11:55 AM 46.4 °F 42.9 °F 28.4 °F 50% 30.34 in 10.0 mi WNW 6.9 mph - N/A   Scattered Clouds
12:59 PM 50.0 °F - 28.4 °F 43% 30.30 in 10.0 mi WNW 8.1 mph - N/A   Partly Cloudy
1:55 PM 50.0 °F - 28.4 °F 43% 30.28 in 10.0 mi North 15.0 mph - N/A   Scattered Clouds
2:58 PM 51.8 °F - 28.4 °F 41% 30.26 in 10.0 mi NW 13.8 mph - N/A   Scattered Clouds
3:58 PM 51.8 °F - 28.4 °F 41% 30.26 in 10.0 mi NW 17.3 mph 20.7 mph N/A   Mostly Cloudy
4:58 PM 50.0 °F - 28.4 °F 43% 30.22 in 10.0 mi NNW 12.7 mph - N/A   Mostly Cloudy
5:58 PM 46.4 °F 41.1 °F 28.4 °F 50% 30.22 in 10.0 mi NNW 11.5 mph - N/A   Mostly Cloudy
6:58 PM 43.5 °F 37.9 °F 29.3 °F 57% 30.29 in 10.0 mi NNW 10.4 mph - N/A   Overcast
7:43 PM 42.8 °F 35.8 °F 28.4 °F 57% 30.24 in 10.0 mi NNW 13.8 mph - N/A   Overcast
7:58 PM 43.5 °F 37.1 °F 28.0 °F 54% 30.30 in 10.0 mi NNW 12.7 mph - N/A   Overcast
8:58 PM 39.0 °F 32.8 °F 28.9 °F 67% 30.25 in 10.0 mi WNW 9.2 mph - N/A   Scattered Clouds
9:58 PM 36.3 °F 28.9 °F 27.9 °F 71% 30.26 in 10.0 mi WNW 10.4 mph - N/A   Clear
10:37 PM 39.2 °F 30.8 °F 28.4 °F 65% 30.27 in 10.0 mi NW 15.0 mph - N/A   Mostly Cloudy
10:58 PM 39.9 °F 31.8 °F 27.5 °F 61% 30.27 in 10.0 mi NW 15.0 mph - N/A   Overcast
11:33 PM 39.2 °F 30.2 °F 28.4 °F 65% 30.28 in 10.0 mi NW 17.3 mph - N/A   Scattered Clouds
11:38 PM 39.2 °F 29.3 °F 28.4 °F 65% 30.28 in 10.0 mi NW 20.7 mph - N/A   Mostly Cloudy
11:53 PM 39.2 °F 29.6 °F 26.6 °F 61% 30.27 in 10.0 mi NW 19.6 mph - N/A   Scattered Clouds
11:58 PM 39.7 °F 30.0 °F 27.1 °F 61% 30.31 in 10.0 mi NW 20.7 mph - N/A   Scattered Clouds